Vertical_Velocity
-4 -3 -4 -3 -0 -2 -2 -1 -3 -0 -0 -1 -1 0 -2 -1 -1 -1 -1 -0 1 -1 -0 0 1 -1 -1 -1 -1 -2 -2 -0 0 0 1 -0 -0 -0 -0 0 -0 -2 -1
3 -2 -4 -3 1 -0 -2 -4 1 1 -0 -2 -0 -2 -0 -2 -2 -1 -0 -0 -3 0 -0 0 1 0 0 -0 0 -0 1 1 1 0 0 1 -0 1 -1 -0 -1 -1 -2
-1 -1 -3 -2 2 -1 -4 -3 -3 -3 -4 -1 -3 -0 -0 -1 -1 -1 0 -0 -1 0 -1 -0 -0 0 0 1 0 1 0 -1 -1 -1 -1 -2 -1 -1 0 -1 0 1 -0
1 0 -3 -1 0 -1 -2 -0 -3 -4 -4 -3 -3 -1 -1 -1 -1 -1 -2 -0 -0 0 -0 -1 -1 -1 -1 -1 -1 -1 -1 -2 -1 -3 -2 -2 -3 -1 -1 -1 -2 -1 -1
1 1 -1 0 -0 1 -0 0 -3 -1 -2 -3 -2 -1 -2 -2 -0 -1 -1 0 -0 -1 -2 -1 -0 -1 -0 -1 -1 -1 1 1 1 0 1 0 -0 -1 1 -2 -1 -1 1
1 -1 -0 -0 0 2 -0 1 -1 -0 -5 -2 -1 -1 -1 -2 -1 -0 -1 -1 -0 -1 -1 -2 -1 -1 -2 -2 -1 -0 -1 -1 -1 -0 -2 -1 -2 -2 -1 -1 -1 -0 0
0 -1 0 0 2 0 2 -0 -2 -2 -1 -5 -3 -2 -2 -1 -1 -1 -1 -2 -1 -0 -1 -1 -1 -1 -1 -1 -1 0 1 -0 -1 0 -1 0 1 -1 -2 -1 0 1 -2
1 2 1 1 2 0 2 1 -1 -1 1 2 -7 -5 -4 -4 -3 -3 -2 -1 -1 -0 -1 -1 -1 -0 -1 -0 -0 -2 1 -3 0 1 -0 0 -0 0 0 1 1 2 -0
0 1 3 2 0 0 2 1 0 0 1 2 3 -3 -5 -7 -4 -3 -2 -2 -2 -3 -2 -2 -3 -2 -3 -1 -2 -1 -2 0 -2 -2 -2 -1 1 -1 -2 -4 -1 2 1
-0 -1 1 1 2 1 2 2 2 3 1 -0 0 2 4 2 -2 -4 -4 -4 -2 -2 -2 -1 -2 -2 -2 -3 -2 -2 -4 -2 -3 -3 -1 -1 -1 0 1 1 -1 -1 -3
2 1 2 2 2 3 -0 1 1 3 2 0 0 -0 0 0 4 2 -0 -2 -2 -1 0 -1 -2 -3 -2 -1 0 -0 -2 1 -2 -2 -3 -0 -1 -3 -0 -1 -2 -1 -2
1 1 1 1 2 2 1 2 1 2 3 3 0 1 0 -0 0 1 2 3 1 -2 0 0 -0 -1 -1 -1 0 -0 -2 -1 3 -1 -3 -2 -0 0 1 -0 1 -2 1
2 1 1 -1 -1 1 -0 -1 -1 -0 -0 0 3 1 -0 0 1 0 1 2 2 1 4 0 -2 -1 1 -1 -2 -0 -1 -1 2 2 1 -1 -2 -0 -1 -0 3 -0 -0
-0 1 4 1 -0 -0 -2 1 0 -1 1 2 2 0 0 0 1 1 1 -0 0 1 1 2 3 4 4 2 2 1 -1 -2 -1 -1 1 0 -0 -2 -1 -1 -3 2 0
-2 -2 2 0 2 6 3 1 -1 -0 0 0 0 1 1 3 3 1 1 -0 1 2 2 1 0 -0 0 2 -1 1 2 -2 0 2 2 2 0 1 -2 -0 -0 -2 1
-4 -2 -4 -0 -0 0 1 0 1 -0 -1 0 0 -0 -1 -0 1 1 2 3 2 1 0 1 1 1 3 1 2 4 5 2 -0 0 -1 2 -2 -3 -2 -1 -1 0 -0
5 3 -6 -4 -3 -3 -1 -1 -2 -1 -1 3 4 1 3 2 2 2 2 4 4 1 2 2 1 1 -0 0 2 -2 -2 0 0 -1 -3 2 3 1 -2 -0 2 -2 -1
3 4 1 -2 -4 -3 -1 -2 -2 1 1 0 1 2 1 0 -0 -0 -1 -0 -2 -1 -2 2 2 1 3 3 4 6 2 -2 -0 2 -2 1 3 2 1 1 -0 1 0
-7 -1 3 0 -1 -1 -3 -3 1 0 -4 -1 -2 -0 1 2 1 -3 -2 -1 -1 -1 -3 -1 -1 0 -2 -0 2 2 -0 1 -2 -2 -0 -1 1 1 1 -1 -0 1 2
-1 -4 -3 1 1 0 1 0 -3 -1 -1 -3 0 -1 -2 -2 -1 -2 -2 -1 -1 -2 0 -0 -2 -1 -3 -2 -3 -1 -1 1 2 3 3 -1 0 2 2 1 1 2 1
0 2 2 -3 -2 2 3 3 2 1 1 -2 1 0 2 -0 2 -2 4 3 8 1 5 2 -1 -2 1 1 5 -3 -0 -2 -1 -4 2 1 1 2 2 1 2 1 -2
0 4 1 -1 0 -2 -3 -2 -0 0 4 4 8 1 -1 3 2 4 0 3 -1 0 2 3 9 2 -1 3 6 -0 -9 -1 -2 3 -3 0 1 -1 1 4 2 4 3
1 1 1 1 1 0 2 -1 -3 -3 -2 1 1 1 4 2 3 3 -1 -1 -0 -2 0 1 0 5 2 3 6 10 -4 -7 -1 5 6 0 2 -1 -0 1 4 3 6
-0 0 0 -0 -1 -1 -1 1 1 -0 -2 -1 -0 1 2 -1 1 2 3 4 3 -1 -2 1 -0 -1 1 -1 2 6 2 6 2 -9 -0 0 -1 0 4 0 0 2 3
1 0 1 -0 -0 1 0 -0 0 1 1 -0 -1 -1 -2 1 1 1 1 0 -0 -0 -2 -3 1 2 3 3 5 4 3 0 -4 -3 1 8 7 12 -1 -1 2 5 4
-1 -0 -0 -0 -0 0 -0 -1 -0 -0 -1 1 -0 2 1 -0 -3 -1 2 3 2 3 4 3 -1 -1 -2 2 2 4 4 1 3 4 -2 3 -13 35 8 3 4 5 -0
Height
3188 3190 3192 3193 3194 3194 3194 3194 3193 3192 3191 3190 3189 3189 3188 3187 3186 3185 3184 3183 3182 3181 3180 3181 3181 3181 3181 3182 3183 3183 3184 3184 3184 3183 3183 3183 3182 3182 3181 3180 3179 3179 3178
3189 3190 3192 3194 3194 3195 3196 3195 3194 3193 3193 3192 3191 3190 3189 3187 3186 3185 3185 3184 3183 3183 3183 3182 3182 3182 3182 3183 3183 3184 3184 3185 3184 3184 3183 3183 3182 3182 3181 3181 3180 3179 3178
3188 3190 3192 3194 3195 3196 3196 3196 3196 3196 3195 3194 3193 3191 3190 3188 3188 3187 3187 3186 3185 3185 3185 3185 3184 3184 3184 3184 3184 3185 3185 3184 3184 3184 3183 3183 3183 3182 3181 3180 3180 3179 3178
3188 3190 3192 3194 3195 3195 3196 3197 3198 3197 3196 3195 3194 3193 3192 3191 3190 3189 3188 3188 3188 3187 3187 3186 3186 3186 3186 3186 3186 3186 3186 3186 3186 3184 3184 3183 3182 3182 3181 3181 3180 3179 3178
3187 3190 3192 3193 3195 3195 3197 3198 3198 3198 3197 3195 3195 3194 3194 3193 3192 3191 3191 3190 3190 3190 3189 3189 3188 3188 3188 3188 3188 3188 3188 3187 3186 3186 3185 3184 3183 3182 3182 3181 3180 3179 3178
3187 3189 3191 3193 3194 3196 3197 3197 3197 3197 3197 3196 3196 3196 3195 3195 3194 3193 3193 3193 3192 3192 3192 3191 3191 3191 3191 3190 3190 3190 3189 3188 3187 3187 3185 3184 3183 3182 3182 3181 3180 3179 3178
3186 3187 3190 3192 3194 3195 3196 3197 3197 3197 3196 3197 3198 3198 3198 3197 3196 3196 3196 3195 3195 3194 3194 3193 3193 3193 3193 3192 3192 3192 3191 3190 3189 3188 3187 3186 3185 3183 3182 3181 3180 3179 3178
3185 3186 3188 3190 3193 3194 3196 3196 3196 3197 3197 3197 3198 3199 3199 3199 3198 3198 3198 3197 3197 3197 3196 3196 3196 3195 3195 3194 3194 3193 3192 3191 3190 3190 3189 3187 3185 3184 3183 3181 3180 3179 3178
3183 3185 3187 3189 3191 3193 3195 3196 3196 3197 3198 3198 3198 3198 3198 3199 3199 3199 3199 3198 3198 3198 3198 3198 3198 3197 3196 3195 3195 3194 3193 3193 3191 3190 3189 3188 3186 3185 3183 3182 3181 3179 3178
3181 3183 3185 3188 3190 3192 3194 3195 3196 3197 3198 3199 3199 3199 3199 3198 3198 3199 3199 3199 3199 3199 3199 3199 3198 3198 3197 3196 3195 3195 3194 3193 3191 3190 3189 3188 3186 3184 3183 3182 3180 3179 3177
3179 3181 3183 3186 3188 3190 3192 3194 3195 3196 3197 3198 3199 3199 3199 3199 3199 3198 3198 3198 3198 3198 3198 3198 3198 3197 3196 3196 3195 3195 3194 3192 3191 3190 3188 3187 3185 3184 3182 3181 3179 3178 3177
3178 3180 3182 3185 3187 3188 3190 3192 3193 3195 3196 3197 3197 3197 3198 3198 3198 3198 3198 3197 3197 3196 3197 3197 3196 3195 3195 3194 3194 3193 3193 3192 3190 3189 3188 3186 3184 3183 3181 3179 3178 3176 3175
3176 3179 3181 3183 3185 3186 3188 3189 3191 3192 3193 3194 3195 3194 3195 3196 3196 3196 3196 3196 3196 3195 3195 3195 3194 3193 3192 3192 3191 3191 3190 3190 3189 3187 3187 3186 3184 3181 3179 3178 3176 3174 3173
3174 3177 3179 3181 3182 3183 3185 3186 3188 3189 3190 3191 3191 3191 3192 3192 3193 3193 3193 3193 3193 3193 3193 3192 3192 3191 3190 3189 3189 3188 3187 3187 3186 3185 3184 3183 3182 3180 3178 3176 3174 3173 3171
3172 3174 3176 3178 3180 3181 3182 3183 3184 3186 3187 3187 3187 3187 3188 3189 3189 3190 3190 3190 3190 3190 3189 3188 3188 3187 3187 3187 3186 3185 3184 3184 3183 3182 3181 3179 3179 3178 3176 3174 3172 3171 3169
3168 3170 3172 3175 3177 3178 3179 3180 3181 3182 3182 3183 3183 3184 3184 3185 3186 3186 3186 3186 3186 3185 3185 3184 3184 3183 3183 3183 3182 3181 3180 3179 3179 3178 3177 3175 3174 3173 3172 3171 3170 3168 3166
3165 3165 3167 3170 3172 3174 3175 3176 3177 3178 3178 3179 3180 3180 3180 3181 3182 3182 3182 3182 3182 3180 3180 3180 3179 3179 3179 3178 3177 3175 3175 3174 3174 3174 3173 3172 3171 3169 3168 3167 3166 3165 3163
3162 3163 3164 3165 3167 3169 3169 3170 3171 3172 3173 3174 3175 3175 3176 3176 3176 3177 3177 3177 3176 3175 3175 3174 3174 3173 3173 3172 3171 3170 3169 3167 3168 3168 3168 3167 3166 3164 3163 3162 3161 3160 3159
3155 3159 3161 3161 3162 3163 3164 3165 3166 3166 3166 3168 3169 3170 3171 3171 3171 3171 3171 3171 3170 3170 3169 3168 3168 3167 3166 3166 3165 3163 3163 3161 3160 3160 3161 3160 3159 3158 3157 3156 3156 3155 3154
3151 3152 3154 3156 3158 3159 3159 3159 3159 3160 3162 3162 3162 3163 3164 3164 3165 3164 3164 3164 3163 3162 3162 3162 3161 3160 3159 3159 3157 3156 3155 3155 3154 3153 3153 3153 3153 3152 3151 3150 3149 3149 3149
3146 3147 3147 3148 3150 3152 3153 3154 3156 3156 3157 3157 3157 3157 3157 3158 3158 3157 3157 3157 3156 3154 3155 3154 3153 3152 3151 3151 3149 3148 3147 3147 3146 3146 3145 3145 3145 3145 3144 3143 3142 3141 3141
3140 3141 3142 3142 3143 3144 3145 3145 3146 3147 3149 3151 3151 3151 3151 3151 3150 3149 3149 3149 3148 3146 3145 3146 3145 3144 3144 3143 3141 3140 3136 3137 3138 3139 3137 3136 3137 3136 3136 3135 3134 3134 3133
3134 3134 3136 3137 3137 3137 3137 3137 3138 3138 3138 3139 3140 3142 3143 3143 3142 3141 3140 3139 3139 3138 3137 3137 3137 3135 3135 3135 3135 3133 3130 3126 3128 3130 3131 3129 3128 3127 3127 3127 3127 3125 3125
3127 3128 3129 3129 3130 3130 3131 3131 3130 3131 3131 3132 3132 3132 3133 3132 3132 3132 3132 3131 3130 3129 3128 3128 3128 3126 3126 3124 3124 3124 3122 3121 3118 3116 3118 3120 3119 3117 3116 3117 3117 3116 3115
3121 3121 3122 3122 3122 3122 3123 3124 3124 3124 3124 3124 3124 3124 3123 3124 3123 3123 3122 3121 3121 3120 3119 3118 3118 3117 3116 3115 3114 3114 3112 3111 3110 3109 3105 3107 3111 3109 3107 3105 3105 3105 3105
3113 3114 3114 3114 3115 3115 3116 3116 3117 3117 3117 3117 3117 3116 3116 3117 3116 3115 3115 3114 3114 3113 3112 3110 3109 3109 3108 3107 3104 3104 3103 3101 3100 3098 3096 3095 3096 3095 3095 3094 3095 3094 3094